Flag for Switzerland Weather past 2 weeks in Schwyz, Schwyz, Switzerland

Now
40 °F

Quite cool.


Feels Like: 33 °F
Forecast: 39 / 45 °F
Wind: 12 mph from North

Location: Altdorf

Current Time: Apr 2, 2015 at 12:21:23 AM

Latest Report: Apr 1, 2015 at 10:00 PM


Visibility: N/A

Pressure: 30.35 "Hg

Humidity: 69%

Dew point: 31 °F

Location of SchwyzLocation

Historic Weather in Schwyz — Graph

°F

Schwyz temperature yesterday

Maximum temperature yesterday: 50 °F (at 12:00 AM)
Minimum temperature yesterday: 38 °F (at 5:00 PM)
Average temperature yesterday: 43 °F

Past Weeks' High & Low Weather Summary

 TemperatureHumidityPressure
High68 °F (Mar 31, 1:00 PM)96% (Mar 29, 4:00 AM)30.35 "Hg (Mar 29, 4:00 AM)
Low33 °F (Mar 28, 7:00 AM)30% (Mar 31, 12:00 PM)29.58 "Hg (Mar 25, 2:00 PM)
Average47 °F72%30.01 "Hg
* Reported Mar 17 9:00 PM — Apr 1 10:00 PM, Schwyz, Weather by CustomWeather, © 2015

Note: Actual official high and low records may vary slightly from our data, if they occured in-between our weather recording intervals... More about our weather records

Advertising

Schwyz weather history for previous 24 hours

 ConditionsComfort  
Time TempWeatherWind HumidityBarometerVisibility
10:00 PM
Wed, Apr 1
40 °FQuite cool.12 mph69%30.35 "HgN/A
9:00 PM42 °FQuite cool.18 mph63%30.33 "HgN/A
8:00 PM43 °FLight rain. Overcast.14 mph54%30.31 "Hg9 mi
7:00 PM40 °FQuite cool.3 mph76%30.30 "HgN/A
6:00 PM40 °FQuite cool.14 mph74%30.29 "HgN/A
5:00 PM38 °FDrizzle. Low clouds.26 mph83%30.29 "Hg1 mi
4:00 PM42 °FQuite cool.15 mph70%30.25 "HgN/A
3:00 PM42 °FQuite cool.18 mph66%30.24 "HgN/A
2:00 PM43 °FLight rain. Overcast.22 mph65%30.23 "Hg4 mi
1:00 PM45 °FCool.15 mph49%30.21 "HgN/A
12:00 PM46 °FCool.14 mph45%30.21 "HgN/A
11:00 AM43 °FOvercast.18 mph54%30.21 "Hg9 mi
10:00 AM42 °FQuite cool.21 mph59%30.20 "HgN/A
9:00 AM40 °FChilly.23 mph73%30.20 "HgN/A
8:00 AM45 °FLight rain. Overcast.21 mph45%30.16 "Hg3 mi
7:00 AM43 °FQuite cool.20 mph61%30.12 "HgN/A
6:00 AM43 °FQuite cool.22 mph60%30.11 "HgN/A
4:00 AM46 °FCool.21 mph54%30.09 "HgN/A
3:00 AM46 °FCool.20 mph59%30.08 "HgN/A
2:00 AM48 °FCool.18 mph44%30.07 "HgN/A
1:00 AM50 °FCool.24 mph44%30.04 "HgN/A
12:00 AM50 °FCool.21 mph43%30.04 "HgN/A
Weather by CustomWeather, © 2015

See weather overviewHow to use our weather pages